Location: Berville
(49.1893°N, 2.0748°E)
Time: 01:43:19
(UTC+00:00)

Cosmos 2219 Rocket - Pass Details

Date: 08 February 2023
Orbit: 826 x 848 km, 71.0° (Epoch: 24 March)

Event Time Altitude Azimuth Distance (km) Brightness Sun altitude
Rises 20:10:02 0° 251° (WSW) 3,364 6.1 -31.3°
Reaches altitude 10° 20:12:57 10° 265° (W) 2,436 5.4 -31.8°
Maximum altitude 20:17:22 24° 318° (NW) 1,685 4.2 -32.5°
Enters shadow 20:20:51 14° 3° (N) 2,190 4.4 -33.0°
